Погода в Шамилькала

Россия / Республика Дагестан     42°41′16″N   46°52′15″E
В апреле 2022 года жителям России запретили посещать сайт meteo.paraplan.net по решению Генеральной прокуратуры. Аудитория сайта уменьшилась в 10 раз. Владельцы сайта не видят смысла в поддержке погодного сервера в таких условиях. Сайт будет закрыт в октябре.
темп.,
°C
ветер,
м/с
пор.,
м/с
влажн.,
%
обл.,
%
осадки,
мм/ч
давл.,
гПа
погр.,
м
29 сентября, чт
чт2900:00+14зсз224091 0.0 101014
03:00+12з22467 0.0 101114
06:00+12з32448 0.0 101314
09:00+19с11304 0.0 1012531
12:00+20св43370 0.0 10121554
15:00+19св434554 0.0 10131650
18:00+14св22764 0.0 101616
21:00+12ю01890 0.0 101811
30 сентября, пт
пт3000:00+12юз22887 0.0 101813
03:00+11зюз228688 0.0 101914
06:00+11юз22865 0.0 102013
09:00+17вюв22580 0.0 1019654
12:00+20всв32410 0.0 10181363
15:00+20св32392 0.0 10181067
18:00+14всв11575 0.0 102011
21:00+13з226019 0.0 102111
1 октября, сб
сб100:00+13зюз116368 0.0 102111
03:00+12зюз227222 0.0 102113
06:00+11зюз22768 0.0 102314
09:00+17з01528 0.1 1022583
12:00+20св324435 0.8 10201670
15:00+18ссв335122 1.5 1021988
18:00+15св11643 0.6 102210
21:00+13зюз22690 0.6 102213
2 октября, вс
вс200:00+12зюз22690 0.0 102218
03:00+11зюз22717 0.0 102117
06:00+10зюз32750 0.0 102120
09:00+17ююз11514 0.0 1018475
12:00+20вюв223995 0.0 10151739
15:00+21всв33365 0.0 10121439
18:00+15вюв116485 0.0 101211
21:00+14юз3357100 0.0 101226
3 октября, пн
пн300:00+12юз445977 0.0 101045
03:00+11юз446074 0.0 100951
06:00+11зюз4462100 0.0 100964
09:00+18юз334283 0.0 1007352
12:00+22з0131100 0.0 1005965
15:00+23св3134100 0.0 1006624
18:00+15всв1268100 0.0 100912
21:00+14с11665 0.0 101111